Track STARLINK-1312 now! 10-day predictions STARLINK-1312 is classified as:
1 45398U 20019AQ 24325.79266524 .00006070 00000-0 42578-3 0 9990 2 45398 53.0533 114.0227 0001440 85.9960 274.1194 15.06421744258336